This is the latest recevied weather packets stored in our database for station/object KB4MOX. If no packets are shown the sender has not sent any weather packets the latest 10 day(s).
| Time | Temp. | Humidity | Pressure | Rain* | Wind** | Luminosity | Snow |
|---|---|---|---|---|---|---|---|
| 1788128652 | 31.67° C | 55% | 1018.7 hPa | 0 mm | - | 172 W/m² | - |
| 1788128348 | 31.67° C | 57% | 1018.7 hPa | 0 mm | - | 190 W/m² | - |
| 1788128044 | 32.22° C | 57% | 1018.9 hPa | 0 mm | - | 74 W/m² | - |
| 1788127739 | 33.33° C | 52% | 1018.7 hPa | 0 mm | - | 233 W/m² | - |
| 1788127439 | 33.33° C | 52% | 1018.9 hPa | 0 mm | - | 237 W/m² | - |
| 1788127136 | 33.33° C | 50% | 1018.8 hPa | 0 mm | - | 257 W/m² | - |
| 1788126836 | 33.33° C | 50% | 1018.8 hPa | 0 mm | - | 267 W/m² | - |
| 1788126531 | 33.33° C | 51% | 1018.8 hPa | 0 mm | - | 288 W/m² | - |
| 1788126226 | 32.78° C | 51% | 1018.8 hPa | 0 mm | - | 306 W/m² | - |
| 1788125921 | 32.78° C | 51% | 1018.9 hPa | 0 mm | - | 324 W/m² | - |
| 1788125616 | 32.78° C | 52% | 1019 hPa | 0 mm | - | 333 W/m² | - |
| 1788125312 | 31.67° C | 53% | 1018.8 hPa | 0 mm | - | 350 W/m² | - |
| 1788125008 | 32.22° C | 53% | 1018.7 hPa | 0 mm | - | 61 W/m² | - |
| 1788124706 | 32.22° C | 53% | 1018.8 hPa | 0 mm | - | 66 W/m² | - |
| 1788124401 | 32.78° C | 53% | 1018.8 hPa | 0 mm | - | 75 W/m² | - |
| 1788124097 | 33.33° C | 52% | 1018.8 hPa | 0 mm | - | 416 W/m² | - |
| 1788123796 | 32.78° C | 53% | 1018.9 hPa | 0 mm | - | 436 W/m² | - |
| 1788123494 | 32.22° C | 55% | 1018.8 hPa | 0 mm | - | 455 W/m² | - |
| 1788123188 | 32.78° C | 54% | 1019 hPa | 0 mm | - | 84 W/m² | - |
| 1788122883 | 33.33° C | 52% | 1019 hPa | 0 mm | - | 507 W/m² | - |
| 1788122582 | 33.89° C | 51% | 1019.1 hPa | 0 mm | - | 551 W/m² | - |
| 1788122278 | 33.33° C | 51% | 1019 hPa | 0 mm | - | 565 W/m² | - |
| 1788121974 | 33.33° C | 51% | 1019.1 hPa | 0 mm | - | 547 W/m² | - |
| 1788121673 | 33.33° C | 50% | 1019.3 hPa | 0 mm | - | 551 W/m² | - |
| 1788121369 | 33.33° C | 51% | 1019.2 hPa | 0 mm | - | 566 W/m² | - |
* Rain latest hour (hover to see other rain measurements)
** Current wind speed in m/s (hover to see current wind gust speed)